Regional Weather Roundup
Issued by NWS

Home | Current Version | Previous Version | Text Only | Print | Product List | Glossary On
Versions: 1 2 3 4 5 6 7 8 9 10 11 12 13 14 15 16 17 18 19 20 21 22 23 24 25 26 27 28 29 30 31 32 33 34 35 36 37 38 39 40 41 42 43 44 45 46 47 48 49 50
000
ASUS43 KMPX 221410
RWRMN
WEATHER ROUNDUP FOR MINNESOTA
NATIONAL WEATHER SERVICE TWIN CITIES/CHANHASSEN MN
900 AM CDT SAT JUL 22 2017


NOTE: "FAIR" INDICATES FEW OR NO CLOUDS BELOW 12,000 FEET WITH NO
SIGNIFICANT WEATHER AND/OR OBSTRUCTIONS TO VISIBILITY. N/A MEANS
CURRENT SKY AND/OR WEATHER CONDITIONS ARE NOT AVAILABLE.

MNZ060>063-068>070-221500-
   Twin Cities Metro

CITY           SKY/WX    TMP DP  RH WIND       PRES   REMARKS
TWIN CITIES    CLOUDY    74  64  71 N14       29.87R
ST PAUL        MOSUNNY   75  66  73 N9        29.87R
CRYSTAL        CLOUDY    73  63  70 NE7       29.86F
BLAINE         MOSUNNY   73  68  83 NW5       29.88F
LAKEVILLE      CLOUDY    73  68  83 N8G16     29.89R
EDEN PRAIRIE   CLOUDY    75  66  73 N9        29.86R
SOUTH ST PAUL  CLOUDY    74  64  72 N10G16    29.87F
LAKE ELMO      FAIR      72  66  83 N8        29.89S
$$
MNZ001>005-007-008-013>017-022>024-027-028-221500-
   Northwest Minnesota

CITY           SKY/WX    TMP DP  RH WIND       PRES   REMARKS
BEMIDJI        SUNNY     70  64  82 S6        29.82F
HALLOCK        SUNNY     70  64  83 W9        29.79R
ROSEAU         CLOUDY    66  63  88 SW6       29.79R
WARROAD        PTSUNNY   66  63  88 SW6       29.79S
THIEF RVR FALL SUNNY     70  65  84 SW12      29.82R
CROOKSTON      SUNNY     68  66  94 SW12      29.83R
FOSSTON        SUNNY     70  64  83 SW13      29.84R
DETROIT LAKES  SUNNY     72  63  73 SW3       29.87R
MOORHEAD       SUNNY     72  64  78 SW7       29.86R
PARK RAPIDS    SUNNY     72  65  78 W8        29.83R
MAHNOMEN       FAIR      70  65  83 W12       29.84S
$$
MNZ006-009>011-018-025>026-221500-
   North Central Minnesota

CITY           SKY/WX    TMP DP  RH WIND       PRES   REMARKS
BAUDETTE       CLOUDY    64  64 100 E5        29.79S
FLAG ISLAND    CLOUDY    66  63  88 S7        29.78R FOG
INTL FALLS     SUNNY     68  62  81 S7        29.82S
BIG FORK       CLOUDY    66  64  94 SW5       29.84S
LONGVILLE      CLOUDY    66  66 100 N3        29.83S
GRAND RAPIDS   CLOUDY    65  64  97 SW3       29.86R
CRANE LAKE     PTSUNNY   61  57  88 CALM      29.86R
ORR            CLOUDY    61  57  88 SW5       29.84R
COOK           CLOUDY    61  61 100 CALM      29.85S FOG
WALKER         FAIR      68  64  86 W3        29.83S
$$
MNZ012-019>021-037-221500-
   Northeast Minnesota

CITY           SKY/WX    TMP DP  RH WIND       PRES   REMARKS
DULUTH         CLOUDY    65  62  90 CALM      29.83F
ELY            CLOUDY    61  55  82 CALM      29.85R
HIBBING        CLOUDY    61  61 100 SW5       29.84F
EVELETH        CLOUDY    63  60  90 CALM      29.86S FOG
DULUTH HARBOR  CLOUDY    64  59  82 CALM      29.83F
TWO HARBORS    CLOUDY    66  59  77 CALM      29.82F
SILVER BAY     MOSUNNY   61  55  82 NE6       29.84R
GRAND MARAIS     N/A     59  54  83 E9        29.84R
G MARAIS ARPRT PTSUNNY   63  52  67 NE8       29.87S
$$
MNZ029>031-032-039>041-046>048-054>057-064-221500-
   West Central Minnesota

CITY           SKY/WX    TMP DP  RH WIND       PRES   REMARKS
FERGUS FALLS   SUNNY     70  70 100 SW6       29.86R
WHEATON        SUNNY     72  66  83 S8        29.89R
MORRIS         SUNNY     75  66  73 S3        29.87R
ALEXANDRIA     SUNNY     71  67  87 S8        29.88R
ELBOW LAKE     FAIR      71  67  87 S8        29.86S
WADENA         SUNNY     70  68  94 SW6       29.83R
GLENWOOD       SUNNY     72  66  83 SE7       29.87F
APPLETON       MOSUNNY   75  64  69 SE8       29.87S
BENSON         MOSUNNY   75  64  69 S6        29.88F
ORTONVILLE     MOSUNNY   73  64  73 SE6       29.88S
MADISON        MOSUNNY   77  73  88 SE3       29.88F
WILLMAR        FAIR      75  68  78 E6        29.88F
$$
MNZ033>034-036-042>043-049>051-058-059-221500-
   Central Minnesota

CITY           SKY/WX    TMP DP  RH WIND       PRES   REMARKS
ST CLOUD       MOSUNNY   71  69  93 S9        29.83F
SAUK CENTRE    FAIR      71  68  88 S7        29.86R
PAYNESVILLE    SUNNY     75  67  77 SE9       29.85F
AITKIN         CLOUDY    68  64  88 NE3       29.80S
PINE RIVER     PTSUNNY   66  66 100 N7        29.85R
BRAINERD       CLOUDY    69  66  90 SW6       29.79F
STAPLES        SUNNY     70  66  88 CALM      29.82R
LONG PRAIRIE   PTSUNNY   68  66  94 SE7       29.86R
LITTLE FALLS   CLOUDY    68  64  88 S7        29.83R
LITCHFIELD     MOSUNNY   75  72  88 SE6       29.87F
BUFFALO        PTSUNNY   71  65  81 SE5       29.87F
MAPLE LAKE     MOSUNNY   73  69  87 S3        29.87F
HUTCHINSON     SUNNY     75  70  83 N7        29.88F
$$
MNZ037-044-045-052-053-221500-
   East Central Minnesota

CITY           SKY/WX    TMP DP  RH WIND       PRES   REMARKS
PRINCETON      MOSUNNY   70  68  94 S6        29.82F
MORA           PTSUNNY   64  64 100 S3        29.81F
CAMBRIDGE      MOSUNNY   73  68  83 SE6       29.80F
RUSH CITY      CLOUDY    67  65  93 SE5       29.83F
MOOSE LAKE     CLOUDY    63  63 100 CALM      29.80F
HINCKLEY       FAIR      66  66 100 SE7       29.79F
CLOQUET        CLOUDY    61  59  94 CALM      29.84F
MCGREGOR       CLOUDY    66  64  94 NE3       29.82R
$$
MNZ071>073-080-081-089-090-097-098-221500-
   Southwest Minnesota

CITY           SKY/WX    TMP DP  RH WIND       PRES   REMARKS
MONTEVIDEO     MOSUNNY   77  70  78 E6        29.87F
GRANITE FALLS  MOSUNNY   76  70  81 CALM      29.89F
CANBY          PTSUNNY   73  69  87 CALM      29.91S
MARSHALL       MOSUNNY   73  70  88 NW5       29.90S
REDWOOD FALLS  SUNNY     75  68  78 NW8       29.87F
OLIVIA         MOSUNNY   77  70  78 N3        29.86F
PIPESTONE      SUNNY     73  66  78 N5        29.92S
WINDOM         MOSUNNY   73  70  88 NW8       29.91R
WORTHINGTON    CLOUDY    73  70  90 NW8       29.92R
JACKSON        CLOUDY    72  70  94 NW12      29.90R FOG
SLAYTON        SUNNY     72  65  79 N10       29.93R HAZE
$$
MNZ065>067-074>077-082>085-091>093-221500-
   South Central Minnesota

CITY           SKY/WX    TMP DP  RH WIND       PRES   REMARKS
MANKATO        CLOUDY    70  68  93 N16       29.89R
NEW ULM        CLOUDY    73  68  83 N8        29.88R
ST JAMES       MOSUNNY   73  70  88 W15       29.88S
FAIRMONT       CLOUDY    72  71  97 NW10      29.87R
GLENCOE        SUNNY     75  71  88 N7G18     29.87F
FARIBAULT      CLOUDY    72  70  94 N15       29.90R
OWATONNA       CLOUDY    72  70  94 NW8       29.87R
WASECA         CLOUDY    72  70  94 N6        29.89R
ALBERT LEA     CLOUDY    72  70  94 NW6       29.86R FOG
$$
MNZ078>079-086>088-094>096-221500-
   Southeast Minnesota

CITY           SKY/WX    TMP DP  RH WIND       PRES   REMARKS
ROCHESTER      FOG       69  69 100 N5        29.87R VSB 3/4
RED WING       CLOUDY    73  66  78 CALM      29.87R
STANTON        CLOUDY    72  68  87 N9        29.88R
DODGE CENTER   FOG       70  66  88 NW5       29.87R VSB 1
WINONA         CLOUDY    72  68  88 CALM      29.85R
AUSTIN         CLOUDY    72  70  94 N6        29.86R
PRESTON        CLOUDY    69  67  96 NE3       29.87R FOG
$$
ABBREVIATIONS USED IN REMARKS
   TC - TEMPERATURES IN CELSIUS
  WCI - WIND CHILL INDEX
   HX - HEAT INDEX
  VSB - VISIBILITY
$$



USA.gov is the U.S. government's official web portal to all federal, state and local government web resources and services.